Vorticity
32 35 37 38 38 38 37 37 36 35 34 32 30 26 22 18 16 15 14 13 13 13 12 10 8 7 6 6 6 6 6 7 7 7 6 7 6 6 5 4 4 4 4 4 5 6 6 6 5 5 5 6 8 10 13 15 16 16 16 16 15 12 7 -1 -3 2 8 9 4
29 33 36 39 39 39 39 39 38 37 36 36 34 32 27 22 19 17 15 14 14 14 13 12 9 8 6 6 6 6 6 6 6 6 6 6 6 6 5 4 4 4 4 4 5 5 6 6 6 5 5 5 6 8 12 14 16 17 17 17 16 14 10 3 -4 -4 -1 2 1
26 31 35 39 40 39 39 40 40 41 40 39 39 36 33 28 24 20 17 16 15 14 14 13 11 9 7 6 5 5 6 6 6 6 6 6 6 5 5 4 4 4 4 4 4 5 6 6 6 6 5 5 6 7 10 11 14 16 18 18 18 17 14 8 -0 -4 -4 0 2
22 27 33 38 39 38 36 36 39 41 42 42 43 42 39 35 30 24 20 18 16 15 14 14 13 11 8 7 6 5 5 5 6 6 6 6 6 5 5 4 4 4 3 3 3 4 5 6 6 5 5 4 6 7 8 10 13 16 19 21 22 21 19 13 4 -2 -3 1 6
17 22 28 35 37 34 28 24 31 36 39 38 40 42 43 42 38 32 26 20 18 16 16 15 14 12 10 8 7 6 5 5 5 6 6 6 5 5 5 4 4 3 3 3 3 4 5 6 6 5 5 4 5 7 8 10 13 16 20 22 23 23 20 13 5 -0 -0 6 13
13 16 22 29 33 30 22 12 16 25 33 34 34 36 38 41 42 39 33 26 21 19 17 16 15 14 12 10 8 6 5 4 4 5 5 5 5 5 4 4 3 3 3 3 3 4 4 5 5 5 5 4 5 6 8 10 13 15 18 21 22 20 16 10 5 1 2 12 18
14 16 20 24 29 30 28 23 22 26 32 38 37 36 36 37 40 41 40 34 27 22 18 17 16 15 14 12 10 8 6 4 4 4 4 5 5 4 4 4 3 3 3 3 3 4 4 5 5 5 5 4 5 6 8 10 13 15 17 19 19 16 12 9 6 2 3 15 19
17 18 20 22 26 30 34 36 36 35 33 34 36 37 36 36 37 39 41 40 33 27 22 19 18 17 16 14 12 10 7 5 4 4 4 5 4 4 4 4 4 3 3 3 3 3 4 4 5 5 5 4 5 6 8 10 13 15 17 19 18 14 10 8 4 1 4 18 24
19 19 20 22 24 27 30 34 36 35 33 30 31 33 35 37 37 38 40 40 37 32 26 21 20 19 17 16 14 11 9 6 4 4 4 4 4 4 4 4 4 4 3 2 2 3 3 4 5 5 4 4 5 6 8 11 13 16 18 20 18 14 10 5 -2 -3 3 18 28
22 22 23 24 24 25 26 28 30 32 33 32 33 36 38 41 40 39 39 40 39 35 30 24 22 20 19 17 15 13 10 7 5 4 4 4 4 4 4 4 5 5 4 2 2 3 4 4 5 5 4 4 4 6 8 11 14 16 18 20 20 18 12 1 -9 -9 -1 12 21
26 27 27 28 29 29 27 24 23 24 26 28 32 36 41 45 46 44 42 41 40 37 33 28 24 22 20 19 17 14 12 9 6 5 5 5 4 4 4 4 5 5 5 4 3 3 4 5 5 5 5 4 5 6 9 12 14 16 19 21 22 22 16 3 -11 -12 -6 0 4
31 32 32 34 35 34 31 27 23 21 21 22 24 28 33 41 47 48 46 43 41 38 35 31 27 24 22 21 18 16 13 11 8 7 6 6 5 4 4 4 5 5 5 5 5 5 5 5 5 5 5 5 5 7 9 12 14 17 19 22 24 24 20 10 -6 -12 -12 -11 -10
31 31 31 31 32 34 34 34 30 27 23 21 20 21 24 30 39 45 46 44 42 39 36 33 29 27 24 22 20 18 15 13 10 8 7 6 6 6 5 5 5 6 6 6 6 6 6 6 6 6 6 6 7 8 10 13 16 18 20 23 25 25 23 17 4 -7 -14 -18 -16
32 29 26 22 20 22 26 30 31 29 27 24 24 25 25 26 34 40 42 41 40 38 37 35 32 30 27 25 23 20 17 15 12 10 9 8 8 7 7 7 7 7 7 8 8 8 8 7 6 6 6 7 9 11 13 16 18 20 22 24 25 24 22 19 11 1 -8 -16 -16
31 28 25 21 18 17 18 20 22 25 27 26 27 27 27 29 35 38 38 36 36 36 37 36 35 34 32 31 29 25 21 17 15 13 12 11 10 10 10 10 9 9 9 10 10 9 9 8 7 7 8 10 12 15 18 21 23 24 25 25 24 22 20 18 13 7 1 -7 -9
21 20 19 16 18 19 21 23 25 30 35 37 38 36 35 35 38 38 37 34 33 34 36 37 38 38 38 37 36 32 25 18 16 15 15 14 13 12 12 12 12 12 11 12 11 11 10 9 9 10 12 15 19 22 25 28 28 27 26 25 22 20 18 16 12 10 7 3 -0
13 13 13 15 19 21 24 27 35 41 46 49 48 46 43 41 41 40 38 36 34 34 35 35 35 34 33 31 32 30 26 18 16 16 16 16 14 14 13 13 13 13 12 12 12 12 12 12 14 17 21 25 29 31 30 28 26 25 23 22 20 19 17 16 14 11 9 7 4
18 17 18 21 22 22 21 22 33 41 45 46 47 48 49 50 48 45 42 39 37 36 33 28 21 16 13 11 16 21 24 19 16 16 16 16 16 15 14 13 13 12 12 12 12 13 15 18 23 29 33 36 34 30 25 22 18 18 20 19 17 15 13 13 13 12 9 7 4
27 26 24 22 21 19 16 13 17 21 24 30 36 41 46 50 51 49 47 45 42 40 36 28 16 9 6 6 10 19 25 21 17 17 19 20 21 19 15 12 13 13 13 13 15 18 22 27 30 33 33 30 25 20 17 15 12 13 17 18 16 13 11 11 13 12 9 6 4
19 16 10 4 2 0 -0 1 0 1 4 11 19 23 25 28 33 37 40 41 40 38 37 35 30 26 24 23 23 25 27 22 16 13 13 16 19 19 17 16 17 17 18 18 22 24 26 25 22 20 18 15 13 10 7 5 5 7 11 15 15 13 12 12 13 11 8 6 5
5 -2 -9 -17 -21 -21 -16 -9 -8 -7 -6 -3 1 1 -1 -3 1 7 14 20 24 26 27 28 29 32 35 37 34 32 29 25 18 10 3 4 12 18 21 23 23 22 23 24 25 23 18 12 9 8 8 8 5 2 0 -1 0 2 4 6 9 9 9 10 12 11 8 6 7
-1 -7 -12 -15 -17 -16 -14 -9 -7 -4 -2 -3 -6 -8 -10 -15 -16 -14 -9 -1 5 10 13 15 15 19 26 33 35 34 31 29 24 18 12 11 18 24 27 27 25 24 24 24 20 14 8 4 6 7 8 7 6 4 4 4 5 6 8 10 11 12 13 13 14 14 13 11 12
8 2 -2 -2 0 0 -0 2 4 8 10 8 2 -4 -7 -9 -12 -11 -9 -4 -1 1 2 4 4 6 11 19 25 28 29 28 27 26 25 26 28 29 28 26 24 22 19 16 11 7 5 6 9 10 11 11 11 12 13 15 18 20 22 24 24 24 24 23 23 23 23 22 21
10 7 5 5 10 10 9 10 11 15 21 25 17 7 -0 -0 -2 -2 -1 -3 -1 1 4 6 3 1 2 9 15 19 21 23 25 27 28 29 27 24 21 20 18 16 13 8 4 4 6 9 10 11 11 11 13 16 20 24 27 29 31 32 33 33 33 33 33 33 32 32 31
4 1 0 4 10 11 12 18 15 17 24 36 31 16 2 4 11 11 7 0 1 6 12 17 15 10 6 5 9 11 14 17 20 23 24 22 16 12 10 11 13 13 12 9 6 5 4 4 4 4 5 8 13 17 21 23 24 25 26 27 28 29 30 31 32 32 32 32 31
3 -2 -3 4 14 16 15 14 11 16 27 44 36 13 -7 -4 15 18 13 6 12 18 24 28 28 24 18 11 8 6 5 8 14 18 18 12 4 1 1 5 10 14 16 16 13 9 5 1 0 1 4 10 14 16 15 13 12 13 15 18 20 20 21 21 22 22 23 23 24
4 3 5 10 15 15 13 13 10 19 34 48 31 4 -17 -16 6 15 16 14 23 31 37 38 36 32 28 21 15 7 0 -2 4 11 14 8 2 -2 -3 -2 3 9 15 19 17 14 10 8 9 10 11 11 10 8 6 4 5 8 11 14 15 15 14 14 14 14 14 15 16
5 10 12 12 15 15 13 13 11 21 35 48 24 -3 -22 -27 -10 3 10 14 22 31 38 39 33 28 25 25 22 15 6 -2 2 9 13 10 3 -2 -6 -10 -9 -4 3 10 12 13 12 13 14 13 10 4 1 1 2 3 5 8 11 14 13 12 11 10 10 10 11 11 12
4 1 3 8 13 14 12 11 12 20 31 41 21 -2 -22 -32 -22 -11 -2 4 8 13 20 27 24 17 12 14 19 21 19 15 13 13 13 10 6 2 -2 -9 -14 -15 -13 -7 -2 0 2 2 3 1 -2 -4 -2 2 4 6 8 10 12 13 12 10 10 9 10 10 10 11 11
34 12 -3 -3 2 8 13 17 17 19 24 29 21 7 -8 -21 -21 -17 -12 -6 -2 1 5 10 12 8 2 -1 6 13 18 19 17 14 11 9 10 11 11 8 1 -6 -10 -12 -12 -12 -12 -12 -11 -10 -7 -2 3 7 10 11 11 12 12 11 10 9 9 10 11 12 13 14 14
56 53 39 19 8 3 4 10 14 17 21 25 21 15 7 -2 -8 -10 -11 -10 -7 -5 -4 -3 -1 1 2 1 2 4 6 8 9 9 8 8 11 15 19 22 21 17 12 6 1 -4 -8 -10 -8 -5 0 5 9 11 13 13 12 11 10 9 8 8 9 11 14 16 17 17 16
21 40 54 58 43 26 12 3 0 1 5 12 17 17 13 6 2 -1 -2 -3 -3 -4 -5 -7 -8 -6 -3 1 2 4 6 7 7 8 9 10 10 12 14 18 24 29 32 31 25 17 9 4 4 6 8 10 10 10 10 10 9 8 8 6 7 8 10 13 16 18 19 18 16
1 5 15 31 44 47 41 28 17 10 5 1 4 9 12 9 5 3 2 3 3 3 2 0 -1 -2 -2 -1 1 4 6 9 10 10 10 11 11 10 10 10 14 20 28 35 35 30 23 16 13 11 10 9 7 6 6 6 6 6 5 5 7 9 12 14 16 18 18 16 14
4 2 1 2 10 21 32 40 39 37 34 31 27 22 18 15 12 8 6 6 7 7 6 4 4 3 2 0 -0 0 2 5 8 10 10 11 11 10 9 7 7 8 12 16 20 21 20 16 13 11 8 6 4 3 2 3 3 4 5 6 9 12 14 16 16 16 15 14 13
4 4 4 4 3 3 6 12 19 25 28 30 31 33 32 30 25 20 16 12 11 10 10 8 6 5 4 4 2 1 1 2 4 6 8 10 11 12 10 8 5 5 5 6 8 10 11 12 11 10 8 6 4 3 3 3 4 6 8 12 15 17 18 17 15 14 13 12 11
3 4 4 5 6 5 4 4 4 6 9 13 18 23 28 34 34 32 28 22 18 16 14 11 9 7 7 7 7 6 5 4 4 3 4 5 7 9 10 9 6 5 5 6 7 9 10 12 12 13 12 11 9 7 7 7 8 12 16 21 23 22 20 16 14 13 12 11 11
2 3 3 4 5 6 6 6 6 5 4 4 5 8 12 19 26 32 35 35 33 30 26 19 14 10 7 7 8 9 9 9 7 6 5 4 4 5 6 6 5 4 5 6 8 10 12 13 15 16 16 16 15 14 13 13 15 18 23 27 26 23 19 14 12 12 11 12 12
4 4 4 4 4 5 5 5 6 6 7 7 5 4 3 4 8 14 21 27 33 37 38 35 26 18 12 9 8 9 10 10 11 10 10 9 8 7 6 4 3 3 4 6 8 10 12 13 15 16 17 18 18 18 17 18 19 22 24 25 23 19 14 12 11 10 11 12 14
7 7 6 6 6 5 5 4 5 6 6 7 7 7 6 4 3 3 4 6 13 22 30 36 35 32 27 20 16 13 11 10 10 11 12 13 13 14 13 12 11 10 10 10 11 12 13 13 13 14 15 16 17 17 18 18 18 19 18 17 14 12 10 8 8 9 9 10 12
10 10 10 10 9 9 7 6 6 6 5 5 6 7 7 6 6 4 4 2 3 6 11 18 25 30 32 32 29 25 21 16 13 11 10 10 13 15 18 21 21 21 20 19 18 17 16 14 14 13 13 13 14 14 15 15 14 13 11 9 7 6 5 6 6 6 6 6 7
12 12 12 12 12 12 12 10 10 8 7 6 6 6 6 6 6 6 6 6 5 4 4 5 10 14 19 23 26 29 29 28 24 19 14 11 11 13 16 19 22 23 23 23 21 18 16 14 13 12 11 11 11 12 12 11 10 8 6 3 2 2 2 3 4 4 4 4 3
Height
5541 5541 5542 5542 5543 5544 5546 5547 5550 5552 5555 5558 5562 5566 5570 5575 5580 5585 5590 5596 5601 5606 5612 5617 5622 5626 5630 5634 5637 5641 5644 5648 5652 5655 5659 5663 5667 5671 5674 5677 5680 5682 5684 5687 5689 5692 5694 5696 5697 5698 5699 5701 5703 5706 5707 5709 5711 5712 5714 5716 5718 5721 5726 5731 5730 5729 5729 5729 5730
5537 5537 5537 5537 5538 5539 5541 5542 5544 5547 5549 5552 5555 5558 5562 5567 5573 5578 5583 5589 5594 5600 5605 5610 5615 5620 5624 5628 5632 5635 5639 5643 5647 5651 5655 5658 5662 5666 5669 5672 5675 5677 5680 5683 5685 5687 5690 5692 5693 5694 5695 5697 5700 5702 5704 5706 5707 5709 5710 5712 5714 5716 5720 5726 5728 5728 5727 5727 5727
5534 5533 5533 5533 5534 5535 5537 5538 5539 5541 5543 5546 5548 5552 5556 5560 5566 5571 5577 5582 5588 5593 5599 5604 5609 5614 5618 5622 5626 5631 5634 5638 5642 5646 5651 5654 5658 5661 5664 5667 5670 5673 5676 5678 5681 5683 5685 5687 5689 5690 5692 5693 5696 5698 5700 5702 5704 5705 5706 5708 5710 5712 5715 5719 5723 5725 5725 5724 5723
5531 5531 5530 5530 5531 5532 5533 5534 5535 5537 5538 5540 5542 5545 5549 5554 5559 5565 5571 5576 5582 5587 5593 5598 5603 5608 5612 5617 5622 5626 5630 5633 5637 5641 5646 5650 5653 5657 5660 5663 5666 5669 5672 5674 5677 5679 5681 5683 5685 5687 5688 5690 5692 5694 5696 5698 5700 5701 5702 5704 5706 5708 5711 5714 5718 5721 5722 5721 5720
5529 5528 5528 5527 5527 5528 5529 5530 5531 5532 5532 5534 5537 5540 5544 5548 5553 5559 5565 5571 5577 5582 5588 5593 5598 5603 5608 5612 5617 5621 5625 5629 5632 5637 5641 5645 5649 5653 5656 5659 5662 5665 5667 5670 5672 5675 5677 5680 5682 5683 5684 5686 5688 5690 5692 5694 5696 5697 5699 5700 5702 5704 5707 5709 5713 5717 5720 5718 5716
5527 5526 5525 5525 5525 5525 5525 5526 5526 5527 5528 5530 5534 5537 5539 5543 5548 5553 5560 5566 5572 5577 5583 5588 5594 5598 5603 5607 5612 5616 5621 5625 5628 5633 5637 5642 5646 5649 5652 5655 5658 5661 5663 5666 5668 5671 5673 5676 5678 5680 5681 5682 5685 5687 5688 5690 5692 5693 5695 5696 5698 5700 5702 5705 5708 5713 5717 5717 5711
5524 5524 5523 5523 5522 5522 5522 5522 5523 5524 5526 5528 5531 5533 5535 5538 5543 5548 5554 5560 5566 5572 5578 5584 5589 5594 5599 5603 5608 5612 5617 5621 5625 5629 5633 5637 5642 5645 5648 5651 5654 5656 5659 5661 5664 5667 5670 5672 5674 5676 5677 5679 5681 5683 5685 5687 5687 5688 5690 5692 5693 5695 5697 5700 5704 5709 5712 5712 5707
5522 5522 5522 5521 5520 5520 5520 5521 5521 5522 5524 5526 5527 5529 5532 5535 5539 5544 5549 5555 5562 5568 5573 5579 5584 5590 5595 5599 5604 5609 5613 5617 5622 5626 5630 5634 5638 5642 5645 5647 5650 5652 5655 5657 5660 5663 5666 5668 5670 5672 5673 5675 5677 5679 5681 5683 5684 5685 5686 5687 5689 5691 5693 5697 5702 5707 5709 5707 5703
5521 5520 5520 5519 5518 5518 5518 5519 5520 5521 5522 5524 5525 5527 5530 5533 5536 5540 5545 5551 5557 5563 5569 5575 5581 5586 5591 5596 5601 5606 5610 5614 5618 5622 5626 5631 5634 5637 5641 5644 5646 5648 5651 5654 5657 5660 5662 5665 5666 5667 5669 5671 5673 5675 5677 5679 5680 5681 5682 5684 5685 5687 5690 5694 5700 5704 5705 5702 5700
5520 5519 5519 5518 5517 5517 5517 5518 5519 5520 5522 5523 5524 5526 5528 5531 5534 5538 5542 5547 5552 5558 5565 5571 5577 5582 5587 5593 5598 5602 5607 5611 5615 5618 5623 5627 5631 5634 5637 5640 5643 5646 5648 5651 5654 5657 5659 5661 5663 5664 5665 5667 5669 5672 5674 5675 5676 5677 5678 5680 5682 5684 5687 5691 5697 5700 5699 5697 5697
5519 5519 5518 5517 5517 5517 5517 5517 5518 5519 5520 5522 5524 5526 5527 5530 5533 5536 5540 5544 5550 5556 5561 5567 5573 5578 5584 5589 5595 5599 5603 5607 5611 5615 5620 5624 5627 5630 5633 5637 5641 5643 5645 5648 5651 5654 5656 5658 5659 5661 5662 5663 5666 5668 5670 5672 5672 5673 5674 5676 5678 5681 5684 5687 5692 5694 5693 5692 5694
5519 5518 5518 5517 5517 5517 5517 5517 5517 5518 5519 5521 5523 5525 5527 5529 5532 5535 5538 5542 5547 5553 5558 5564 5570 5576 5581 5587 5592 5597 5600 5604 5608 5612 5617 5621 5624 5627 5629 5633 5638 5641 5642 5645 5648 5650 5652 5654 5656 5657 5659 5660 5662 5664 5666 5668 5669 5670 5670 5672 5674 5677 5681 5683 5686 5687 5688 5688 5690
5519 5519 5518 5518 5517 5518 5518 5518 5518 5518 5518 5520 5522 5525 5528 5529 5532 5535 5539 5542 5546 5551 5556 5561 5567 5573 5579 5584 5589 5593 5597 5602 5605 5609 5614 5617 5621 5623 5627 5630 5633 5637 5639 5642 5644 5647 5649 5651 5652 5654 5655 5657 5658 5660 5662 5664 5665 5666 5667 5668 5670 5673 5676 5679 5681 5682 5683 5684 5685
5521 5520 5520 5519 5519 5520 5520 5520 5520 5520 5520 5521 5522 5525 5528 5530 5532 5536 5539 5542 5546 5550 5554 5559 5565 5571 5577 5582 5586 5591 5595 5597 5602 5607 5611 5614 5617 5621 5624 5627 5630 5633 5636 5639 5641 5643 5646 5647 5649 5651 5652 5653 5655 5657 5658 5660 5661 5662 5663 5664 5666 5669 5672 5675 5677 5677 5678 5680 5681
5522 5521 5521 5520 5520 5521 5522 5523 5524 5524 5524 5524 5524 5526 5529 5532 5533 5536 5539 5543 5546 5550 5555 5560 5565 5570 5574 5579 5584 5588 5591 5595 5600 5604 5607 5611 5614 5618 5621 5623 5627 5630 5633 5636 5638 5640 5642 5644 5646 5647 5649 5650 5652 5654 5655 5656 5657 5658 5660 5662 5663 5665 5668 5671 5673 5674 5675 5676 5678
5521 5521 5520 5520 5520 5521 5522 5524 5527 5528 5528 5528 5527 5529 5531 5534 5536 5537 5540 5544 5547 5551 5556 5560 5565 5569 5573 5578 5582 5585 5588 5593 5597 5601 5605 5608 5612 5615 5617 5621 5624 5627 5630 5632 5635 5637 5639 5641 5642 5644 5646 5647 5648 5650 5651 5652 5654 5656 5658 5660 5662 5663 5665 5667 5670 5671 5672 5673 5675
5522 5522 5522 5522 5522 5522 5522 5524 5527 5529 5530 5530 5529 5530 5533 5536 5538 5539 5541 5544 5548 5552 5557 5560 5565 5570 5575 5578 5581 5583 5586 5592 5596 5599 5602 5606 5609 5612 5615 5618 5621 5624 5627 5630 5632 5635 5637 5638 5639 5641 5642 5643 5645 5646 5647 5650 5652 5654 5656 5658 5660 5662 5663 5664 5666 5667 5668 5670 5672
5523 5523 5523 5523 5522 5522 5522 5524 5527 5529 5530 5530 5530 5531 5534 5537 5540 5542 5543 5546 5550 5554 5558 5562 5566 5570 5574 5576 5578 5581 5586 5591 5595 5598 5601 5603 5606 5609 5612 5615 5618 5622 5625 5627 5630 5632 5634 5635 5637 5638 5640 5641 5643 5645 5647 5649 5651 5653 5655 5656 5657 5658 5659 5660 5662 5663 5665 5666 5668
5526 5524 5523 5523 5523 5523 5524 5526 5528 5529 5530 5532 5533 5534 5536 5539 5542 5544 5546 5549 5553 5556 5560 5563 5566 5569 5572 5574 5578 5582 5586 5590 5594 5597 5600 5602 5604 5607 5610 5614 5617 5620 5622 5625 5627 5629 5631 5633 5635 5637 5639 5642 5644 5645 5647 5648 5650 5651 5652 5652 5653 5654 5655 5656 5657 5659 5661 5662 5665
5530 5529 5528 5527 5527 5528 5529 5531 5533 5535 5536 5536 5536 5537 5539 5541 5544 5547 5550 5553 5556 5559 5562 5565 5568 5572 5574 5577 5581 5584 5586 5589 5593 5597 5600 5602 5603 5605 5609 5612 5615 5618 5620 5622 5625 5627 5629 5632 5634 5636 5639 5641 5643 5645 5646 5646 5646 5647 5647 5648 5649 5650 5651 5652 5654 5656 5657 5659 5661
5534 5533 5533 5533 5532 5533 5533 5535 5537 5539 5540 5541 5541 5542 5543 5544 5547 5550 5552 5556 5560 5563 5566 5568 5571 5574 5577 5580 5582 5584 5586 5589 5592 5596 5598 5600 5602 5604 5607 5610 5613 5616 5618 5620 5622 5625 5627 5630 5632 5634 5636 5638 5640 5641 5641 5641 5642 5643 5644 5645 5647 5648 5649 5651 5652 5653 5654 5656 5657
5538 5537 5537 5536 5536 5536 5537 5537 5539 5540 5542 5543 5545 5545 5546 5547 5550 5552 5555 5558 5563 5566 5568 5570 5573 5576 5578 5580 5582 5584 5586 5588 5592 5594 5596 5598 5601 5603 5606 5609 5611 5613 5616 5618 5620 5622 5624 5627 5629 5631 5633 5634 5635 5635 5636 5637 5638 5639 5640 5642 5643 5644 5645 5646 5647 5648 5650 5651 5652
5541 5540 5540 5539 5539 5540 5540 5540 5541 5542 5544 5546 5548 5548 5547 5548 5551 5553 5557 5560 5564 5567 5569 5570 5572 5575 5578 5580 5582 5584 5586 5588 5591 5593 5595 5598 5601 5603 5606 5608 5610 5612 5614 5616 5618 5620 5622 5623 5625 5627 5627 5628 5629 5631 5632 5634 5634 5635 5636 5636 5637 5638 5639 5640 5642 5643 5644 5646 5647
5545 5544 5543 5542 5541 5541 5541 5542 5542 5543 5545 5547 5550 5551 5551 5552 5554 5557 5562 5567 5570 5572 5572 5572 5574 5577 5579 5581 5582 5583 5586 5588 5590 5592 5595 5597 5600 5602 5605 5607 5609 5611 5612 5614 5615 5617 5618 5620 5621 5622 5622 5623 5625 5627 5629 5629 5630 5630 5630 5631 5632 5633 5634 5636 5637 5638 5639 5641 5642
5549 5548 5547 5545 5545 5544 5545 5545 5547 5549 5551 5554 5557 5558 5559 5564 5568 5571 5572 5572 5574 5574 5575 5576 5578 5581 5583 5583 5584 5586 5587 5588 5589 5591 5593 5596 5599 5602 5605 5607 5608 5609 5610 5612 5612 5614 5616 5616 5617 5617 5618 5620 5622 5623 5624 5625 5625 5626 5626 5627 5628 5629 5630 5632 5633 5634 5635 5636 5638
5552 5551 5551 5552 5552 5554 5556 5557 5558 5558 5558 5560 5562 5563 5565 5570 5572 5574 5575 5575 5573 5572 5572 5574 5577 5582 5585 5587 5589 5589 5589 5588 5589 5591 5593 5596 5599 5602 5604 5604 5605 5606 5607 5608 5609 5611 5612 5612 5613 5614 5616 5617 5618 5620 5620 5621 5621 5622 5623 5624 5625 5626 5627 5628 5629 5630 5631 5632 5634
5557 5557 5557 5559 5558 5559 5559 5560 5560 5559 5560 5560 5562 5563 5565 5567 5568 5569 5571 5573 5572 5572 5572 5573 5575 5577 5581 5585 5587 5589 5589 5589 5589 5591 5593 5595 5598 5600 5601 5601 5602 5603 5603 5604 5605 5607 5608 5609 5610 5612 5613 5614 5615 5616 5617 5617 5618 5619 5620 5621 5622 5622 5623 5624 5625 5627 5628 5629 5631
5562 5562 5562 5561 5559 5558 5558 5558 5558 5558 5559 5560 5561 5561 5562 5564 5565 5567 5569 5571 5571 5572 5572 5573 5574 5575 5576 5579 5582 5584 5587 5588 5589 5589 5591 5593 5595 5597 5597 5598 5599 5600 5601 5602 5603 5604 5605 5606 5607 5609 5610 5611 5611 5612 5612 5613 5614 5615 5616 5617 5618 5619 5620 5621 5622 5623 5624 5625 5626
5567 5566 5564 5562 5561 5560 5560 5560 5559 5560 5561 5562 5562 5561 5561 5561 5562 5564 5566 5568 5570 5571 5572 5572 5573 5574 5575 5576 5578 5580 5582 5585 5587 5588 5589 5591 5592 5594 5595 5595 5596 5597 5597 5598 5599 5600 5601 5602 5603 5605 5606 5607 5607 5608 5609 5610 5611 5612 5612 5613 5614 5615 5616 5617 5618 5619 5620 5621 5622
5567 5567 5566 5566 5564 5563 5562 5562 5562 5562 5562 5563 5563 5563 5562 5561 5561 5562 5563 5565 5567 5568 5570 5571 5571 5572 5573 5574 5576 5578 5580 5582 5583 5585 5586 5588 5589 5590 5592 5593 5594 5595 5596 5597 5597 5597 5598 5598 5600 5601 5602 5603 5604 5604 5605 5606 5607 5608 5609 5610 5611 5612 5612 5613 5614 5615 5616 5617 5618
5566 5566 5567 5567 5567 5566 5565 5565 5565 5565 5565 5565 5565 5564 5563 5562 5562 5562 5563 5564 5565 5566 5567 5568 5569 5570 5571 5572 5573 5574 5576 5577 5579 5580 5581 5582 5584 5586 5587 5589 5590 5592 5593 5595 5596 5596 5597 5597 5597 5598 5599 5599 5600 5600 5601 5602 5603 5604 5605 5606 5607 5608 5608 5608 5609 5610 5612 5613 5614
5567 5566 5566 5566 5567 5567 5567 5567 5568 5568 5568 5568 5567 5567 5565 5564 5563 5563 5563 5564 5564 5564 5565 5566 5566 5567 5568 5570 5571 5572 5573 5575 5576 5577 5578 5579 5579 5581 5582 5584 5585 5587 5588 5590 5592 5593 5595 5595 5595 5595 5595 5595 5596 5596 5597 5598 5599 5601 5602 5602 5603 5604 5604 5605 5605 5606 5607 5608 5609
5569 5568 5567 5567 5567 5567 5567 5568 5568 5569 5569 5569 5569 5568 5568 5567 5566 5565 5564 5564 5564 5564 5564 5564 5565 5566 5567 5569 5571 5572 5573 5573 5574 5574 5575 5576 5577 5577 5578 5579 5580 5581 5582 5584 5587 5589 5591 5592 5593 5593 5592 5591 5591 5592 5593 5594 5596 5597 5598 5599 5599 5600 5601 5601 5602 5602 5603 5604 5605
5570 5570 5569 5568 5567 5567 5566 5566 5566 5566 5566 5567 5567 5568 5568 5568 5567 5566 5565 5565 5564 5564 5564 5564 5564 5565 5566 5567 5569 5570 5570 5571 5572 5572 5573 5573 5574 5575 5576 5577 5577 5578 5579 5581 5582 5584 5586 5587 5589 5589 5589 5588 5588 5588 5589 5590 5591 5592 5594 5595 5596 5597 5597 5597 5598 5599 5600 5601 5602
5571 5570 5569 5569 5568 5567 5566 5565 5564 5564 5563 5563 5563 5564 5565 5566 5566 5566 5566 5565 5564 5564 5563 5563 5563 5564 5565 5566 5567 5567 5567 5568 5569 5570 5570 5571 5571 5572 5572 5573 5574 5576 5577 5577 5578 5580 5582 5583 5584 5585 5586 5586 5586 5586 5586 5587 5587 5589 5590 5591 5592 5593 5593 5594 5595 5596 5597 5598 5600
5571 5571 5570 5569 5568 5567 5567 5566 5565 5564 5563 5562 5561 5561 5561 5561 5562 5563 5563 5563 5563 5563 5562 5562 5563 5563 5564 5565 5566 5566 5567 5567 5567 5567 5568 5569 5569 5569 5570 5571 5572 5572 5573 5574 5575 5576 5577 5579 5580 5581 5582 5582 5583 5583 5584 5584 5585 5585 5586 5587 5588 5589 5590 5591 5592 5594 5595 5597 5597
5571 5570 5569 5568 5567 5567 5566 5565 5564 5563 5563 5562 5561 5560 5559 5559 5559 5559 5560 5560 5561 5561 5561 5561 5561 5562 5562 5563 5564 5565 5565 5565 5565 5565 5565 5566 5567 5567 5568 5568 5569 5570 5571 5572 5572 5573 5573 5573 5574 5576 5577 5578 5578 5579 5580 5581 5582 5582 5583 5584 5585 5586 5587 5588 5590 5592 5593 5595 5595
5569 5569 5568 5567 5567 5566 5565 5564 5563 5563 5562 5561 5561 5560 5559 5559 5558 5558 5557 5557 5557 5557 5558 5559 5560 5560 5561 5561 5562 5562 5562 5563 5563 5563 5563 5563 5564 5564 5565 5566 5567 5567 5568 5568 5569 5570 5570 5571 5571 5571 5572 5573 5574 5575 5576 5577 5578 5579 5580 5581 5582 5583 5584 5585 5587 5588 5590 5592 5593
5567 5567 5566 5565 5565 5564 5563 5562 5562 5561 5561 5560 5559 5559 5558 5558 5557 5557 5557 5556 5555 5555 5554 5555 5556 5557 5558 5559 5559 5559 5559 5559 5560 5560 5560 5560 5560 5561 5561 5562 5562 5563 5564 5565 5565 5566 5567 5567 5568 5569 5570 5570 5571 5572 5573 5574 5575 5576 5577 5578 5579 5580 5581 5582 5583 5585 5586 5588 5590
5565 5564 5563 5562 5562 5562 5561 5560 5559 5559 5558 5558 5557 5557 5557 5556 5556 5555 5555 5554 5554 5553 5552 5552 5552 5552 5553 5554 5555 5555 5555 5555 5555 5555 5556 5556 5557 5557 5558 5558 5559 5559 5560 5560 5561 5562 5562 5563 5564 5565 5566 5567 5568 5569 5571 5572 5573 5574 5575 5575 5576 5577 5578 5579 5580 5582 5583 5585 5587
5562 5561 5560 5559 5559 5558 5558 5557 5557 5556 5555 5555 5554 5554 5554 5553 5553 5553 5552 5552 5552 5551 5551 5550 5549 5549 5548 5548 5549 5550 5551 5551 5552 5552 5552 5552 5552 5553 5554 5555 5555 5556 5556 5557 5557 5557 5558 5559 5560 5560 5561 5562 5564 5565 5567 5568 5569 5570 5571 5572 5573 5574 5575 5576 5577 5579 5580 5582 5583